Location: Honolulu
(21.3069°N, 157.8583°W)
Time: 06:30:10
(UTC-10:00)

Vanguard 2 Rocket - Pass Details

Date: 14 May 2026
Orbit: 553 x 3286 km, 32.9° (Epoch: 10 June)

Event Time Altitude Azimuth Distance (km) Brightness Sun altitude
Rises 19:36:49 0° 289° (WNW) 7,227 13.9 -8.3°
Reaches altitude 10° 19:42:38 10° 282° (WNW) 6,054 12.6 -9.5°
Maximum altitude 19:57:44 33° 226° (SW) 3,598 10.1 -12.7°
Drops below altitude 10° 20:08:12 10° 167° (SSE) 4,166 9.9 -14.8°
Enters shadow 20:10:02 - 160° (SSE) 4,512 10.0 -15.2°
